{"data":{"norad_id":45780,"intl_designator":"2020-038BC","name":"STARLINK-1496","alt_names":[],"object_type":"PAYLOAD","status":"ACTIVE","operator":null,"country":"US","launch_date":"2020-06-13","launch_site_code":"AFETR","launch_vehicle":null,"mission":null,"orbit_class":"UNKNOWN","rcs_meters":null,"size_class":null,"mass_kg":null,"dimensions":null,"purposes":["comms"],"wikipedia_slug":null,"has_3d_model":false,"image_url":null,"decayed_at":null,"tle_current":{"epoch":"2026-05-24T08:55:19.130880Z","epoch_age_seconds":125402,"freshness":"FRESH","line1":"1 45780U 20038BC  26144.37174920  .00069733  00000+0  83379-3 0  9997","line2":"2 45780  53.0448 172.1119 0007875  27.1017 333.0405 15.60349072328780","mean_motion":15.60349072,"eccentricity":0.0007875,"inclination_deg":53.0448,"raan_deg":172.1119,"arg_perigee_deg":27.1017,"mean_anomaly_deg":333.0405,"bstar":0.00083379,"rev_number":32878,"period_min":92.28704178061,"perigee_km":381.32070620111,"apogee_km":391.97524253574,"semimajor_km":6764.7849743684,"source":"CELESTRAK","updated_at":"2026-05-25T13:38:16.457391Z"}}}